Wind_Speed
26 27 28 29 30 31 32 33 34 35 35 36 36 36 37 38 38 38 39 39 40 40 40 41 41 41 42 42 43 43 43 43 44 44 44 44 44 44 44 44 44 44 44
28 29 30 31 32 33 34 35 35 36 37 37 37 37 38 38 39 39 40 40 40 40 41 41 42 42 42 43 43 43 43 44 44 44 44 44 44 45 45 45 45 44 45
30 31 32 33 34 34 35 36 36 37 38 38 38 39 39 39 39 40 40 40 41 41 42 42 42 42 42 43 43 43 43 43 44 44 44 44 44 44 44 44 45 45 45
32 33 34 34 35 36 36 37 37 38 39 39 39 40 40 40 40 40 41 41 42 42 42 42 42 42 43 43 43 43 43 43 43 43 43 43 44 44 44 44 44 44 45
34 35 35 36 36 37 37 38 38 39 39 40 40 40 40 40 41 41 41 41 42 42 41 42 42 42 43 42 42 42 42 43 43 43 43 43 43 44 44 44 44 44 45
35 35 36 37 37 38 38 38 39 40 40 40 40 40 40 41 41 41 42 42 42 42 42 43 43 42 42 42 42 42 42 42 42 42 42 43 43 43 43 44 44 44 45
36 37 37 37 38 38 39 39 39 40 40 40 40 40 41 41 41 41 42 42 43 43 43 43 43 43 43 43 43 43 43 43 43 43 42 42 42 43 43 43 44 44 45
37 37 38 38 38 38 39 39 40 40 40 40 40 40 40 40 41 42 42 43 43 43 44 43 44 44 44 44 44 44 44 43 43 42 42 42 43 43 43 44 44 45 46
37 38 38 39 39 39 39 39 39 39 40 40 41 41 41 41 41 41 42 43 44 44 45 45 45 44 44 44 44 44 44 43 43 44 44 44 44 44 45 46 46 47 48
38 38 39 39 38 38 39 39 39 39 40 40 41 41 42 42 42 42 43 44 44 45 45 45 45 45 45 45 45 45 45 45 45 45 46 46 46 47 48 49 50 51 52
38 38 38 38 38 38 38 39 39 39 40 40 41 42 42 43 43 43 43 44 44 45 46 45 45 46 46 46 46 46 47 47 47 48 48 49 50 51 52 53 54 55 56
37 37 37 38 38 38 38 39 39 39 40 41 42 43 43 43 44 44 44 45 45 45 46 47 47 48 48 48 49 49 49 49 50 51 52 53 54 55 56 57 58 60 61
37 37 37 37 37 38 38 38 39 39 40 41 42 43 43 44 45 45 46 46 46 46 47 49 50 50 50 50 51 51 52 53 54 55 56 57 58 60 61 62 63 64 65
36 37 37 37 37 38 38 38 39 39 41 42 42 43 44 45 46 47 47 48 48 48 49 50 51 52 52 53 54 55 56 58 58 59 61 62 63 65 66 67 68 68 68
36 37 36 37 37 37 37 38 39 40 41 42 43 44 45 46 47 48 49 50 51 51 50 51 52 54 55 56 57 59 60 61 62 63 65 66 67 68 69 70 70 70 69
36 36 36 36 37 37 38 38 39 40 41 42 44 45 46 47 48 49 51 52 53 54 53 53 55 57 58 59 61 63 64 65 66 67 68 69 70 70 71 71 70 70 70
35 35 35 36 36 37 37 38 39 40 42 43 44 45 47 48 49 51 52 54 55 56 56 55 57 59 61 62 64 66 68 68 69 70 70 71 71 71 71 71 71 71 71
35 35 35 35 36 36 37 38 39 41 42 44 45 46 48 49 50 52 53 55 56 57 58 58 59 62 64 66 68 69 69 70 71 71 71 71 70 70 71 71 71 70 70
33 34 34 35 36 37 38 39 40 42 43 44 46 47 49 50 52 53 54 56 57 59 61 61 63 65 67 69 70 70 71 71 72 71 70 70 70 70 70 69 69 68 67
33 33 34 35 36 37 38 40 41 43 44 45 47 49 50 52 53 54 56 57 59 61 63 64 66 68 69 70 71 71 71 71 70 69 69 70 69 69 67 66 64 63 61
33 34 35 36 37 38 39 40 42 43 45 46 48 49 51 52 54 55 57 59 61 63 65 67 68 70 70 71 71 71 70 69 68 69 68 67 67 65 63 61 59 56 54
33 34 35 36 37 38 40 41 43 44 45 47 48 50 51 53 55 57 59 61 63 65 67 69 70 71 70 71 71 71 70 68 67 66 65 63 63 61 58 55 52 50 47
34 35 36 37 38 39 40 42 43 44 46 47 49 50 52 55 56 58 60 62 64 67 69 71 71 71 71 71 71 70 69 68 66 64 62 59 57 54 50 48 45 43 42
34 34 36 37 38 39 41 42 43 45 47 48 49 51 54 56 57 59 61 64 66 68 70 70 70 71 71 71 70 69 67 64 62 60 59 54 50 46 44 42 41 39 37
34 35 36 37 38 40 41 43 44 46 47 49 51 53 55 57 59 61 63 65 66 67 68 69 70 71 70 69 69 66 63 61 58 55 53 49 44 41 39 38 37 35 32
34 35 36 37 39 40 41 43 45 46 48 50 52 54 56 59 61 63 65 66 67 67 68 69 69 69 67 65 63 61 59 57 54 50 47 43 39 37 34 33 32 31 29
Wind_Direction
298 299 300 301 301 301 301 302 302 301 301 302 302 301 300 300 299 299 300 299 299 298 297 296 295 294 293 293 292 291 289 289 288 287 286 285 283 282 280 279 277 276 274
298 299 299 300 300 300 300 300 300 301 301 301 301 302 301 300 300 300 300 300 299 299 298 297 296 296 295 294 293 293 292 291 290 289 288 286 284 283 281 280 278 277 276
297 298 298 299 300 300 300 299 300 301 301 301 302 302 302 301 300 300 300 300 300 300 299 299 298 297 297 296 295 294 293 292 291 290 289 287 286 284 283 281 280 278 277
296 296 297 298 299 299 299 299 299 299 300 301 301 302 302 301 301 301 300 300 301 301 300 300 300 299 298 297 296 295 294 293 292 291 290 288 287 286 284 283 281 280 278
294 294 296 297 298 298 298 298 298 299 299 300 301 302 302 302 301 302 301 301 301 301 301 301 301 300 300 299 298 297 296 295 294 292 291 289 288 286 285 283 282 281 279
292 293 295 296 297 297 297 297 298 298 299 300 301 302 302 302 302 303 302 302 302 302 303 303 303 302 302 301 300 299 297 296 295 293 292 290 288 287 285 284 283 281 280
291 293 294 295 296 296 297 297 298 299 299 300 301 302 302 302 303 303 303 303 304 304 304 304 304 303 303 302 301 300 299 298 296 294 293 291 289 288 287 285 284 283 281
291 292 293 295 296 296 297 297 298 298 299 300 301 302 303 303 304 304 304 305 305 305 305 305 305 304 303 303 302 301 300 299 297 295 294 292 290 289 287 286 285 284 282
290 291 293 294 295 296 296 297 298 298 299 300 300 302 303 303 304 305 305 305 306 306 306 305 305 305 304 303 302 301 300 299 297 295 294 292 291 289 288 286 285 284 283
289 291 292 294 295 296 296 297 297 298 299 300 301 302 303 304 304 305 305 305 306 306 306 306 306 305 304 304 303 301 300 299 297 296 294 293 292 290 289 288 287 286 285
289 290 292 293 294 295 296 297 297 298 299 300 301 302 303 304 304 305 306 306 306 307 307 307 306 305 305 304 303 302 300 299 297 296 295 293 292 291 290 289 288 287 286
289 290 292 293 294 295 296 297 297 298 299 300 301 302 303 304 305 305 306 306 306 307 307 307 307 306 305 304 303 302 301 300 298 297 295 293 292 291 291 290 289 288 287
288 290 292 293 294 295 296 296 297 298 299 300 301 302 303 303 304 305 306 306 306 307 307 307 307 306 305 305 303 302 301 300 298 297 295 294 293 292 291 290 289 288 287
288 290 292 293 294 295 296 297 297 298 299 300 301 302 303 303 304 305 306 306 306 306 307 306 306 305 305 304 303 302 301 300 298 297 296 295 294 293 292 291 290 288 287
289 290 292 293 294 295 296 297 297 298 299 300 301 302 303 303 304 304 305 305 306 306 306 306 305 304 304 303 303 302 301 300 298 297 296 295 294 293 292 291 290 288 287
288 290 292 293 294 295 296 297 298 298 299 300 301 302 303 303 304 305 305 306 306 306 306 306 305 304 304 303 303 302 301 300 299 298 297 296 294 293 292 291 290 289 288
288 290 291 293 294 295 296 297 298 298 300 301 302 303 303 304 304 305 305 306 306 306 307 306 305 305 304 304 304 303 302 301 300 299 298 297 295 294 293 291 290 289 288
288 290 292 293 294 295 296 298 298 299 301 301 302 303 303 304 305 305 305 306 306 306 307 307 306 305 305 304 304 303 303 302 301 300 299 298 297 295 294 292 291 290 290
288 290 292 294 295 296 297 298 299 300 301 301 302 303 304 305 305 305 306 306 306 306 307 306 306 306 305 305 305 304 303 303 302 301 300 299 298 297 296 294 293 292 291
288 290 292 295 296 297 298 299 300 301 302 302 303 304 304 305 305 306 306 307 307 307 307 307 307 306 306 306 305 305 305 304 303 302 301 300 299 298 297 296 296 294 293
289 291 293 295 297 298 299 300 301 302 303 303 304 304 305 305 306 306 307 307 307 307 307 307 307 307 307 307 306 306 306 305 304 303 302 302 301 300 299 298 297 296 294
290 292 294 296 298 299 300 301 302 303 304 304 304 305 306 307 307 307 307 308 308 308 308 308 308 309 308 308 307 307 307 306 305 304 303 302 302 301 300 298 297 297 296
291 294 296 297 299 300 301 302 303 304 305 305 306 306 307 308 308 308 308 309 309 309 309 309 309 309 309 308 308 308 307 307 307 306 305 305 303 302 300 299 299 299 298
293 295 296 298 299 300 302 303 304 306 306 306 307 308 308 309 309 309 309 309 310 310 309 310 310 309 309 309 309 309 308 308 308 308 307 306 304 302 301 300 300 299 299
293 296 297 298 300 301 303 305 306 307 307 307 308 309 310 310 310 309 310 310 311 310 310 310 310 310 310 310 309 309 310 310 310 309 308 307 305 303 302 300 300 301 301
294 296 298 299 301 303 305 306 307 308 309 309 310 311 311 311 311 311 311 311 311 311 311 311 311 311 311 311 311 311 311 311 311 310 309 307 306 304 303 302 302 303 304
Height
5831 5829 5827 5825 5823 5821 5819 5816 5814 5811 5809 5806 5804 5801 5798 5795 5792 5789 5787 5784 5781 5778 5775 5772 5770 5767 5764 5761 5759 5756 5753 5751 5749 5747 5745 5744 5742 5741 5739 5738 5737 5737 5736
5826 5824 5822 5819 5817 5815 5812 5810 5807 5804 5802 5799 5796 5794 5791 5788 5785 5782 5779 5776 5773 5770 5767 5764 5761 5758 5755 5752 5749 5747 5744 5741 5739 5737 5735 5733 5731 5730 5728 5727 5726 5726 5725
5820 5818 5815 5813 5811 5808 5806 5803 5800 5797 5795 5792 5789 5786 5783 5780 5777 5774 5771 5768 5765 5762 5758 5755 5752 5749 5746 5743 5740 5737 5734 5732 5729 5727 5724 5722 5721 5719 5717 5716 5715 5714 5714
5813 5811 5809 5807 5804 5801 5799 5796 5793 5790 5788 5785 5782 5779 5776 5773 5769 5766 5763 5760 5757 5753 5750 5747 5743 5740 5737 5733 5730 5727 5724 5722 5719 5716 5714 5712 5710 5708 5706 5705 5704 5703 5702
5807 5805 5802 5800 5797 5795 5792 5789 5786 5783 5780 5778 5775 5771 5768 5765 5762 5758 5755 5752 5748 5745 5741 5738 5735 5731 5727 5724 5721 5718 5715 5712 5709 5706 5704 5702 5699 5697 5696 5694 5693 5691 5690
5800 5798 5795 5793 5790 5788 5785 5782 5779 5776 5773 5770 5767 5764 5761 5757 5754 5750 5747 5743 5740 5736 5733 5729 5726 5722 5718 5715 5711 5708 5705 5702 5699 5696 5693 5691 5689 5687 5685 5683 5681 5680 5679
5793 5791 5788 5786 5783 5780 5777 5775 5772 5769 5766 5763 5760 5756 5753 5749 5746 5742 5738 5735 5731 5727 5724 5720 5716 5713 5709 5705 5701 5698 5695 5691 5688 5685 5683 5680 5678 5676 5673 5672 5670 5668 5667
5785 5783 5781 5778 5776 5773 5770 5767 5764 5761 5758 5755 5752 5749 5746 5742 5738 5734 5730 5726 5723 5719 5715 5711 5707 5703 5699 5695 5692 5688 5684 5681 5678 5675 5672 5669 5667 5664 5662 5660 5658 5656 5655
5778 5776 5773 5771 5768 5765 5763 5760 5757 5754 5751 5747 5744 5741 5737 5734 5731 5727 5722 5718 5714 5710 5706 5701 5697 5693 5689 5685 5681 5678 5674 5670 5667 5664 5661 5658 5656 5653 5651 5648 5646 5644 5642
5770 5768 5765 5763 5760 5758 5755 5752 5749 5746 5743 5739 5736 5732 5729 5725 5722 5719 5715 5710 5705 5701 5696 5692 5687 5683 5679 5675 5671 5668 5664 5660 5656 5653 5650 5646 5643 5640 5638 5635 5632 5630 5628
5763 5760 5758 5755 5753 5750 5747 5744 5741 5738 5735 5731 5728 5724 5721 5717 5713 5709 5706 5702 5697 5691 5687 5682 5677 5673 5669 5665 5661 5656 5652 5648 5645 5641 5637 5634 5630 5627 5624 5620 5618 5615 5612
5755 5752 5750 5748 5745 5742 5740 5737 5734 5730 5727 5723 5720 5716 5712 5708 5704 5700 5697 5693 5688 5683 5677 5672 5667 5662 5658 5654 5649 5645 5640 5636 5632 5628 5624 5620 5616 5612 5609 5605 5601 5598 5594
5747 5744 5742 5740 5737 5735 5732 5729 5726 5722 5719 5715 5711 5707 5704 5699 5695 5691 5687 5683 5678 5674 5668 5662 5657 5651 5647 5642 5637 5632 5628 5623 5618 5614 5609 5605 5600 5596 5592 5587 5583 5579 5575
5739 5737 5734 5732 5729 5727 5724 5721 5718 5714 5711 5707 5703 5699 5695 5690 5686 5681 5677 5672 5668 5664 5659 5653 5646 5640 5635 5630 5625 5619 5614 5609 5603 5598 5593 5588 5582 5577 5573 5568 5563 5558 5554
5731 5729 5726 5724 5721 5719 5716 5713 5710 5706 5702 5699 5694 5690 5686 5681 5676 5671 5666 5661 5657 5652 5649 5642 5635 5629 5622 5617 5611 5605 5599 5593 5587 5580 5575 5569 5563 5557 5552 5547 5542 5537 5532
5723 5721 5718 5716 5714 5711 5708 5705 5701 5698 5694 5690 5686 5681 5677 5672 5666 5661 5655 5650 5644 5639 5635 5630 5623 5616 5609 5602 5595 5589 5582 5575 5568 5561 5555 5549 5543 5536 5530 5525 5520 5515 5510
5715 5713 5711 5708 5706 5703 5700 5697 5693 5689 5685 5681 5677 5672 5667 5662 5656 5650 5644 5638 5632 5626 5622 5617 5609 5602 5594 5587 5579 5571 5563 5556 5548 5541 5534 5527 5521 5514 5508 5503 5497 5492 5487
5707 5705 5703 5700 5698 5695 5692 5688 5685 5681 5677 5672 5667 5662 5657 5651 5646 5639 5633 5627 5620 5614 5608 5603 5596 5587 5579 5570 5562 5554 5545 5537 5529 5521 5513 5506 5499 5492 5486 5480 5475 5470 5465
5700 5697 5695 5693 5690 5687 5683 5680 5676 5672 5668 5663 5658 5652 5646 5641 5634 5628 5621 5614 5608 5600 5593 5587 5581 5572 5563 5553 5545 5536 5527 5518 5509 5501 5493 5486 5479 5471 5465 5458 5453 5448 5443
5692 5690 5687 5685 5682 5678 5675 5671 5667 5663 5658 5653 5648 5642 5636 5629 5623 5616 5609 5602 5595 5587 5579 5572 5564 5556 5546 5536 5526 5518 5510 5500 5491 5482 5474 5466 5458 5451 5444 5438 5432 5427 5422
5684 5682 5679 5676 5673 5670 5666 5662 5658 5653 5649 5643 5637 5631 5625 5618 5611 5604 5597 5589 5581 5573 5564 5556 5547 5538 5529 5518 5509 5499 5491 5483 5474 5464 5456 5447 5439 5432 5425 5419 5413 5408 5404
5676 5674 5671 5668 5665 5661 5657 5653 5649 5644 5639 5633 5627 5620 5614 5607 5600 5592 5584 5575 5567 5558 5549 5540 5531 5521 5511 5501 5491 5481 5472 5464 5458 5449 5439 5432 5422 5415 5409 5402 5397 5392 5389
5668 5665 5662 5659 5656 5652 5648 5644 5639 5634 5629 5622 5616 5610 5603 5595 5587 5579 5571 5562 5552 5542 5532 5523 5513 5503 5493 5484 5474 5465 5455 5446 5438 5429 5421 5416 5407 5399 5393 5388 5383 5379 5376
5659 5657 5654 5651 5647 5643 5639 5635 5630 5625 5618 5612 5605 5599 5591 5583 5575 5567 5559 5549 5539 5528 5517 5507 5497 5487 5476 5466 5456 5447 5438 5430 5422 5412 5404 5399 5393 5386 5381 5376 5371 5368 5365
5651 5648 5645 5642 5638 5634 5630 5625 5620 5614 5608 5601 5594 5587 5579 5571 5563 5554 5545 5536 5526 5514 5502 5492 5481 5470 5459 5449 5439 5430 5422 5414 5407 5399 5390 5384 5379 5375 5371 5365 5361 5358 5355
5643 5640 5637 5633 5630 5625 5621 5616 5610 5605 5598 5591 5584 5575 5567 5558 5549 5539 5530 5520 5510 5500 5489 5478 5467 5456 5445 5434 5425 5416 5407 5400 5392 5386 5379 5373 5368 5364 5362 5357 5353 5350 5347